Tracking 19976 objects as of 15-Nov-2019
Live streaming from Space Station
objects crossing your sky now

ARIANE 2 DEB

Track ARIANE 2 DEB now!


NORAD ID: 33551
Int'l Code: 1989-006AT
Perigee: 1,428.6 km
Apogee: 35,631.5 km
Inclination: 8.9 °
Period: 651.8 minutes
Semi major axis: 24901 km
RCS: 0.1256 m2 (medium)
Launch date: January 27, 1989
Source: France (FR)
Launch site: FRENCH GUIANA (FRGUI)

Note: This is SATELLITE DEBRIS
aabbcc
Your satellite tracking list
Your tracking list is empty




NASA's NSSDC Master Catalog

Two Line Element Set (TLE):
1 33551U 89006AT  19316.70048021 -.00000007 +00000-0 +00000-0 0  9990
2 33551 008.9396 128.0041 6867750 020.3037 337.1914 02.20940807044765
Source of the keplerian elements: AFSPC